Location: Myrnam
(53.6612°N, 111.2289°W)
Time: 12:38:17
(UTC+00:00)

BUGSAT 1 - Visible Passes

Search period start: 01 December 2023 00:00
Search period end: 11 December 2023 00:00
Orbit: 537 x 588 km, 98.2° (Epoch: 30 November)

Date Brightness Start Highest point End Pass type
(mag) Time Alt. Az. Time Alt. Az. Time Alt. Az.
01 Dec ? 00:52:56 14° NNE 00:52:56 14° NNE 00:53:48 10° NNE visible
01 Dec ? 02:28:55 14° NNW 02:28:55 14° NNW 02:29:31 10° NNW visible
01 Dec ? 13:56:21 10° ENE 13:56:54 10° E 13:57:26 10° E visible
02 Dec ? 00:52:36 13° NNE 00:52:36 13° NNE 00:53:20 10° NNE visible
02 Dec ? 02:28:35 13° NNW 02:28:35 13° NNW 02:29:04 10° NNW visible
02 Dec ? 13:56:06 10° E 13:56:26 10° E 13:56:46 10° E visible
03 Dec ? 00:52:15 13° NNE 00:52:15 13° NNE 00:52:51 10° NNE visible
03 Dec ? 02:28:13 12° NNW 02:28:13 12° NNW 02:28:36 10° NNW visible
04 Dec ? 00:51:52 12° NNE 00:51:52 12° NNE 00:52:21 10° NNE visible
04 Dec ? 02:27:50 12° NNW 02:27:50 12° NNW 02:28:08 10° NNW visible
05 Dec ? 00:51:27 12° NNE 00:51:27 12° NNE 00:51:50 10° NNE visible
05 Dec ? 02:27:26 11° NNW 02:27:26 11° NNW 02:27:38 10° NNW visible
06 Dec ? 00:51:02 11° NNE 00:51:02 11° NNE 00:51:18 10° NNE visible
06 Dec ? 02:27:00 11° NNW 02:27:00 11° NNW 02:27:07 10° NNW visible
07 Dec ? 00:50:34 11° NNE 00:50:34 11° NNE 00:50:46 10° NNE visible
07 Dec ? 02:26:32 10° NNW 02:26:32 10° NNW 02:26:36 10° NNW visible
08 Dec ? 00:50:06 10° NNE 00:50:06 10° NNE 00:50:12 10° NNE visible
09 Dec ? 00:49:36 10° NNE 00:49:36 10° NNE 00:49:37 10° NNE visible
